Location: Unspecified
(0.0000°N, 0.0000°E)
Time: 04:24:28
(UTC+00:00)

Vanguard 2 - All Passes

Search period start: 24 September 2014 00:00
Search period end: 04 October 2014 00:00
Orbit: 553 x 2948 km, 32.9° (Epoch: 23 September)

Date Brightness Start Highest point End Pass type
(mag) Time Alt. Az. Time Alt. Az. Time Alt. Az.
24 Sep - 01:08:37 10° WNW 01:13:24 23° NNW 01:20:09 10° NNE visible
24 Sep - 03:24:03 10° NNW 03:26:40 11° N 03:29:33 10° N visible
24 Sep - 05:36:38 10° NNW 05:43:17 14° NNE 05:50:45 10° NE daylight
24 Sep - 07:45:51 10° NNW 07:59:58 31° NNE 08:14:08 10° E daylight
24 Sep - 09:56:34 10° NW 10:14:35 68° NE 10:28:47 10° ESE daylight
24 Sep - 12:10:49 10° WNW 12:26:59 52° SW 12:37:58 10° SE daylight
24 Sep - 14:32:38 10° WSW 14:38:08 14° SW 14:42:40 10° S daylight
24 Sep - 21:12:38 10° S 21:14:43 14° SE 21:16:56 10° ESE night (unlit)
24 Sep - 23:18:31 10° WSW 23:22:53 57° NNW 23:29:24 10° NE night (unlit)
25 Sep - 01:29:39 10° NW 01:33:32 15° NNW 01:38:28 10° NNE visible
25 Sep - 05:55:52 10° NNW 06:04:22 17° NNE 06:13:59 10° NE daylight
25 Sep - 08:04:50 10° NNW 08:20:16 39° NNE 08:35:22 10° E daylight
25 Sep - 10:16:02 10° NW 10:34:18 85° NE 10:48:24 10° ESE daylight
25 Sep - 12:31:39 10° W 12:46:24 39° SW 12:56:44 10° SSE daylight
25 Sep - 21:30:32 10° SSW 21:33:56 27° SE 21:37:54 10° E night (unlit)
25 Sep - 23:38:15 10° W 23:42:27 32° NNW 23:48:25 10° NE night (unlit)
26 Sep - 01:52:13 10° NNW 01:53:52 11° N 01:55:38 10° N visible
26 Sep - 06:14:48 10° NNW 06:25:11 21° NNE 06:36:59 10° ENE daylight
26 Sep - 08:23:52 10° NW 08:40:19 49° NNE 08:56:04 10° ESE daylight
26 Sep - 10:35:45 10° WNW 10:53:54 78° SW 11:07:45 10° SE daylight
26 Sep - 12:53:07 10° W 13:05:56 29° SW 13:15:17 10° SSE daylight
26 Sep - 21:49:15 10° SW 21:53:08 56° SE 21:57:54 10° ENE night (unlit)
26 Sep - 23:58:34 10° WNW 00:02:12 20° NNW 00:06:58 10° NNE night (unlit)
27 Sep - 04:28:24 10° N 04:29:46 10° NNE 04:31:12 10° NNE visible
27 Sep - 06:33:38 10° NNW 06:45:42 27° NNE 06:59:23 10° ENE daylight
27 Sep - 08:42:59 10° NW 09:00:12 62° NE 09:16:18 10° ESE daylight
27 Sep - 10:55:48 10° WNW 11:13:26 61° SW 11:26:53 10° SE daylight
27 Sep - 13:15:20 10° WSW 13:25:40 21° SW 13:33:37 10° S daylight
27 Sep - 22:08:26 10° WSW 22:12:23 69° NW 22:17:22 10° NE night (unlit)
28 Sep - 00:19:56 10° NW 00:22:09 12° NNW 00:24:43 10° N night (unlit)
28 Sep - 04:45:45 10° N 04:50:44 13° NNE 04:56:21 10° NE visible
28 Sep - 06:52:27 10° NNW 07:05:56 34° NNE 07:21:08 10° E daylight
28 Sep - 09:02:16 10° NW 09:19:56 77° NE 09:36:09 10° ESE daylight
28 Sep - 11:16:16 10° WNW 11:33:00 48° SW 11:45:49 10° SE daylight
28 Sep - 13:38:33 10° WSW 13:45:41 15° SSW 13:51:34 10° S daylight
28 Sep - 20:20:26 10° SSW 20:23:28 19° SSE 20:26:25 10° E visible
28 Sep - 22:28:05 10° W 22:31:46 34° NNW 22:36:22 10° NE night (unlit)
29 Sep - 05:04:00 10° N 05:11:27 16° NNE 05:20:16 10° ENE visible
29 Sep - 07:11:19 10° NNW 07:25:54 43° NE 07:42:15 10° E daylight
29 Sep - 09:21:46 10° NW 09:39:36 86° SW 09:55:42 10° SE daylight
29 Sep - 11:37:16 10° W 11:52:39 36° SW 12:04:36 10° SSE daylight
29 Sep - 14:03:50 10° SW 14:05:59 11° SSW 14:08:00 10° SSW daylight
29 Sep - 20:38:56 10° SW 20:42:48 39° SE 20:46:37 10° ENE visible
29 Sep - 22:48:23 10° WNW 22:51:20 18° NNW 22:54:50 10° NNE night (unlit)
30 Sep - 05:22:26 10° NNW 05:31:52 21° NNE 05:43:24 10° ENE visible
30 Sep - 07:30:17 10° NW 07:45:42 55° NE 08:02:50 10° ESE daylight
30 Sep - 09:41:33 10° WNW 09:59:14 70° SW 10:15:00 10° SE daylight
30 Sep - 11:58:54 10° W 12:12:29 28° SSW 12:23:15 10° SSE daylight
30 Sep - 20:57:59 10° SW 21:02:03 89° SE 21:06:11 10° NE visible
30 Sep - 23:10:51 10° NNW 23:11:04 10° NNW 23:11:18 10° NNW night (unlit)
01 Oct - 05:40:59 10° NNW 05:52:00 28° NNE 06:05:45 10° E daylight
01 Oct - 07:49:23 10° NW 08:05:23 70° NE 08:22:58 10° ESE daylight
01 Oct - 10:01:41 10° WNW 10:18:54 55° SW 10:34:06 10° SE daylight
01 Oct - 12:21:17 10° WSW 12:32:35 21° SSW 12:41:46 10° SSE daylight
01 Oct - 19:09:32 10° SSW 19:12:49 18° SSE 19:15:38 10° ESE visible
01 Oct - 21:17:32 10° WSW 21:21:19 40° NW 21:25:15 10° NE night (unlit)
02 Oct - 03:55:32 10° NNE 03:58:21 11° NNE 04:01:24 10° NE visible
02 Oct - 05:59:39 10° NNW 06:11:52 37° NE 06:27:22 10° E daylight
02 Oct - 08:08:41 10° NW 08:25:02 86° NE 08:42:44 10° SE daylight
02 Oct - 10:22:16 10° W 10:38:41 43° SW 10:53:03 10° SSE daylight
02 Oct - 12:44:28 10° WSW 12:52:58 16° SSW 13:00:08 10° S daylight
02 Oct - 19:27:56 10° SSW 19:32:21 32° SSE 19:35:58 10° E visible
02 Oct - 21:37:42 10° W 21:40:40 20° NNW 21:43:46 10° NNE night (unlit)
03 Oct - 04:12:28 10° N 04:18:41 15° NNE 04:26:13 10° ENE visible
03 Oct - 06:18:26 10° NW 06:31:32 48° NE 06:48:21 10° ESE daylight
03 Oct - 08:28:14 10° WNW 08:44:41 78° SW 09:02:14 10° SE daylight
03 Oct - 10:43:24 10° W 10:58:37 34° SSW 11:11:54 10° SSE daylight
03 Oct - 13:08:31 10° SW 13:13:39 12° SSW 13:18:14 10° S daylight
03 Oct - 17:40:02 10° S 17:42:01 11° SSE 17:43:47 10° SE daylight
03 Oct - 19:46:55 10° SW 19:51:44 67° SE 19:55:38 10° ENE visible
